KPF6R KSGJ-KOPF

Flight info

Callsign KPF6R
Flight time N/A
Altitude 31000
Route PRMUS CUUDA3
Aircraft CL60/M-SBDE1E2E3FGHIJ1J4J5J7M3RWXYZ/LB1V1D1

Departure

Time N/A
Airport Northeast Florida Regional Airport (KSGJ)

Arrival

Time 2026-05-03 20:56
Airport Miami-Opa Locka Executive Airport (KOPF)
Time Latitude Longitude Altitude Speed Heading
2026-05-03 20:15 28.80134 -80.63365 31799 ft 474 kts 169°
2026-05-03 20:15 28.73917 -80.60593 31736 ft 480 kts 169°
2026-05-03 20:16 28.67660 -80.57804 31696 ft 485 kts 169°
2026-05-03 20:16 28.61327 -80.54984 31673 ft 485 kts 169°
2026-05-03 20:16 28.58223 -80.53588 31599 ft 463 kts 169°
2026-05-03 20:17 28.55286 -80.52269 31325 ft 449 kts 169°
2026-05-03 20:17 28.52392 -80.50976 31097 ft 437 kts 169°
2026-05-03 20:17 28.49555 -80.49720 31066 ft 442 kts 169°
2026-05-03 20:18 28.43767 -80.47162 31068 ft 445 kts 169°
2026-05-03 20:18 28.37967 -80.44594 31066 ft 444 kts 169°
2026-05-03 20:19 28.32197 -80.42041 31061 ft 444 kts 169°
2026-05-03 20:19 28.26418 -80.39488 31059 ft 444 kts 169°
2026-05-03 20:20 28.20621 -80.36926 31059 ft 439 kts 169°
2026-05-03 20:20 28.17893 -80.35334 31072 ft 451 kts 154°
2026-05-03 20:20 28.15603 -80.32764 31064 ft 472 kts 135°
2026-05-03 20:20 28.13987 -80.29471 31050 ft 485 kts 123°
2026-05-03 20:21 28.12583 -80.25966 31046 ft 484 kts 122°
2026-05-03 20:21 28.09827 -80.19021 31053 ft 483 kts 123°
2026-05-03 20:22 28.07075 -80.12074 31054 ft 483 kts 122°
2026-05-03 20:22 28.04320 -80.05070 31053 ft 483 kts 122°
2026-05-03 20:23 28.01593 -79.98146 31050 ft 483 kts 122°
2026-05-03 20:23 27.98865 -79.91176 31052 ft 483 kts 122°
2026-05-03 20:24 27.96129 -79.84221 31049 ft 483 kts 121°
2026-05-03 20:24 27.93392 -79.77275 31049 ft 482 kts 122°
2026-05-03 20:25 27.90181 -79.70813 31062 ft 454 kts 144°
2026-05-03 20:25 27.87750 -79.68709 31053 ft 426 kts 163°
2026-05-03 20:25 27.84993 -79.67705 31049 ft 397 kts 184°
2026-05-03 20:25 27.82314 -79.67863 30962 ft 373 kts 203°
2026-05-03 20:26 27.80045 -79.69048 30721 ft 355 kts 222°
2026-05-03 20:26 27.78286 -79.70974 30459 ft 351 kts 231°
2026-05-03 20:26 27.76652 -79.73047 30197 ft 352 kts 232°
2026-05-03 20:26 27.75029 -79.75145 29945 ft 354 kts 232°
2026-05-03 20:27 27.73394 -79.77266 29688 ft 357 kts 230°
2026-05-03 20:27 27.71417 -79.78979 29457 ft 369 kts 212°
2026-05-03 20:27 27.68992 -79.80135 29190 ft 378 kts 208°
2026-05-03 20:27 27.66540 -79.81271 28939 ft 381 kts 208°
2026-05-03 20:28 27.64056 -79.82423 28684 ft 383 kts 208°
2026-05-03 20:28 27.61597 -79.83560 28430 ft 382 kts 208°
2026-05-03 20:28 27.59114 -79.84705 28175 ft 381 kts 208°
2026-05-03 20:28 27.56671 -79.85830 27929 ft 380 kts 208°
2026-05-03 20:29 27.54231 -79.86951 27678 ft 379 kts 208°
2026-05-03 20:29 27.51785 -79.88074 27431 ft 378 kts 207°
2026-05-03 20:29 27.49336 -79.89196 27179 ft 377 kts 208°
2026-05-03 20:29 27.46885 -79.90318 26931 ft 377 kts 207°
2026-05-03 20:30 27.44443 -79.91434 26679 ft 376 kts 207°
2026-05-03 20:30 27.42035 -79.92533 26434 ft 375 kts 207°
2026-05-03 20:30 27.39599 -79.93644 26181 ft 374 kts 207°
2026-05-03 20:30 27.37159 -79.94756 25935 ft 373 kts 207°
2026-05-03 20:31 27.34756 -79.95850 25686 ft 372 kts 207°
2026-05-03 20:31 27.32352 -79.96943 25436 ft 371 kts 207°
2026-05-03 20:31 27.29921 -79.98048 25185 ft 371 kts 207°
2026-05-03 20:31 27.27454 -79.98985 24943 ft 376 kts 198°
2026-05-03 20:32 27.24842 -79.99242 24707 ft 386 kts 184°
2026-05-03 20:32 27.22147 -79.98669 24456 ft 397 kts 170°
2026-05-03 20:32 27.19503 -79.97709 24200 ft 398 kts 169°
2026-05-03 20:32 27.16860 -79.96746 23930 ft 397 kts 169°
2026-05-03 20:33 27.14211 -79.95785 23412 ft 398 kts 169°
2026-05-03 20:33 27.11577 -79.94830 22894 ft 392 kts 169°
2026-05-03 20:33 27.08969 -79.93883 22378 ft 388 kts 169°
2026-05-03 20:33 27.06402 -79.92916 21861 ft 386 kts 167°
2026-05-03 20:34 27.03881 -79.91898 21352 ft 384 kts 166°
2026-05-03 20:34 27.01375 -79.90884 20850 ft 382 kts 166°
2026-05-03 20:34 26.98867 -79.89871 20339 ft 380 kts 166°
2026-05-03 20:34 26.96357 -79.88857 19830 ft 378 kts 166°
2026-05-03 20:35 26.93906 -79.87868 19330 ft 375 kts 166°
2026-05-03 20:35 26.91429 -79.86869 18831 ft 373 kts 166°
2026-05-03 20:35 26.88992 -79.85887 18332 ft 369 kts 165°
2026-05-03 20:35 26.86604 -79.84924 17848 ft 363 kts 166°
2026-05-03 20:36 26.84224 -79.83965 17321 ft 359 kts 165°
2026-05-03 20:36 26.81894 -79.83026 16867 ft 353 kts 165°
2026-05-03 20:36 26.79580 -79.82095 16396 ft 348 kts 165°
2026-05-03 20:36 26.77324 -79.81187 15943 ft 345 kts 165°
2026-05-03 20:37 26.75035 -79.80269 15474 ft 344 kts 165°
2026-05-03 20:37 26.72789 -79.79368 15016 ft 342 kts 165°
2026-05-03 20:37 26.70502 -79.78780 14567 ft 331 kts 181°
2026-05-03 20:37 26.68238 -79.79044 14110 ft 320 kts 200°
2026-05-03 20:38 26.66152 -79.79853 13657 ft 317 kts 204°
2026-05-03 20:38 26.64066 -79.80708 13246 ft 314 kts 204°
2026-05-03 20:38 26.62010 -79.81544 12835 ft 312 kts 204°
2026-05-03 20:38 26.59979 -79.82372 12427 ft 308 kts 204°
2026-05-03 20:39 26.57983 -79.83184 11994 ft 303 kts 204°
2026-05-03 20:39 26.56023 -79.83984 11642 ft 296 kts 205°
2026-05-03 20:39 26.54101 -79.84859 11236 ft 293 kts 206°
2026-05-03 20:39 26.52226 -79.85740 10846 ft 290 kts 206°
2026-05-03 20:40 26.50370 -79.86610 10470 ft 286 kts 206°
2026-05-03 20:40 26.48541 -79.87468 10091 ft 282 kts 206°
2026-05-03 20:40 26.46728 -79.88319 9709 ft 278 kts 206°
2026-05-03 20:40 26.44964 -79.89146 9348 ft 275 kts 206°
2026-05-03 20:41 26.43202 -79.89972 8982 ft 271 kts 206°
2026-05-03 20:41 26.41455 -79.90791 8620 ft 271 kts 206°
2026-05-03 20:41 26.39696 -79.91616 8255 ft 271 kts 206°
2026-05-03 20:41 26.37984 -79.92493 8012 ft 267 kts 212°
2026-05-03 20:42 26.36354 -79.93530 7978 ft 269 kts 213°
2026-05-03 20:42 26.34712 -79.94587 7979 ft 270 kts 212°
2026-05-03 20:42 26.33076 -79.95637 7981 ft 271 kts 213°
2026-05-03 20:42 26.31440 -79.96686 7982 ft 270 kts 213°
2026-05-03 20:43 26.29796 -79.97741 7983 ft 270 kts 212°
2026-05-03 20:43 26.28139 -79.98804 7980 ft 270 kts 213°
2026-05-03 20:43 26.26506 -79.99850 7979 ft 271 kts 212°
2026-05-03 20:43 26.24865 -80.00904 7982 ft 271 kts 212°
2026-05-03 20:44 26.23218 -80.01962 7980 ft 271 kts 212°
2026-05-03 20:44 26.21569 -80.03022 7981 ft 271 kts 212°
2026-05-03 20:44 26.19925 -80.04077 7980 ft 271 kts 212°
2026-05-03 20:44 26.18416 -80.05323 7983 ft 268 kts 230°
2026-05-03 20:45 26.17488 -80.07104 7980 ft 266 kts 250°
2026-05-03 20:45 26.16895 -80.09065 7977 ft 266 kts 252°
2026-05-03 20:45 26.16307 -80.11023 7979 ft 266 kts 252°
2026-05-03 20:45 26.15715 -80.12985 7983 ft 266 kts 251°
2026-05-03 20:46 26.15140 -80.14950 7973 ft 266 kts 256°
2026-05-03 20:46 26.14975 -80.17007 7772 ft 267 kts 269°
2026-05-03 20:46 26.14998 -80.19058 7498 ft 267 kts 269°
2026-05-03 20:46 26.15013 -80.21123 7176 ft 266 kts 269°
2026-05-03 20:47 26.15026 -80.23189 6850 ft 264 kts 269°
2026-05-03 20:47 26.15038 -80.25217 6531 ft 263 kts 269°
2026-05-03 20:47 26.15050 -80.27264 6201 ft 262 kts 269°
2026-05-03 20:47 26.15060 -80.29283 5877 ft 261 kts 269°
2026-05-03 20:48 26.15070 -80.31319 5551 ft 262 kts 270°
2026-05-03 20:48 26.15082 -80.33344 5229 ft 263 kts 270°
2026-05-03 20:48 26.15088 -80.35381 4902 ft 263 kts 270°
2026-05-03 20:48 26.15086 -80.37431 4574 ft 262 kts 270°
2026-05-03 20:49 26.15072 -80.39467 4247 ft 262 kts 270°
2026-05-03 20:49 26.15047 -80.41497 4007 ft 260 kts 270°
2026-05-03 20:49 26.14999 -80.43499 3974 ft 261 kts 266°
2026-05-03 20:49 26.14422 -80.45421 3978 ft 264 kts 236°
2026-05-03 20:50 26.12995 -80.46736 3974 ft 267 kts 204°
2026-05-03 20:50 26.11158 -80.47063 3977 ft 271 kts 180°
2026-05-03 20:50 26.09270 -80.46960 3969 ft 271 kts 178°
2026-05-03 20:50 26.07369 -80.46826 3971 ft 270 kts 178°
2026-05-03 20:51 26.05479 -80.46699 3970 ft 266 kts 178°
2026-05-03 20:51 26.03650 -80.46581 3620 ft 262 kts 178°
2026-05-03 20:51 26.01804 -80.46470 3168 ft 262 kts 178°
2026-05-03 20:51 26.00024 -80.46371 3005 ft 250 kts 178°
2026-05-03 20:52 25.98306 -80.46279 2985 ft 237 kts 178°
2026-05-03 20:52 25.96641 -80.46191 2979 ft 238 kts 178°
2026-05-03 20:52 25.94970 -80.46103 2974 ft 239 kts 178°
2026-05-03 20:52 25.93284 -80.46018 2741 ft 244 kts 178°
2026-05-03 20:53 25.91579 -80.45914 2358 ft 246 kts 171°
2026-05-03 20:53 25.90036 -80.45150 1978 ft 241 kts 135°
2026-05-03 20:53 25.89199 -80.43601 1615 ft 233 kts 99°
2026-05-03 20:53 25.89297 -80.41883 1485 ft 219 kts 75°
2026-05-03 20:54 25.89700 -80.40228 1480 ft 223 kts 73°
2026-05-03 20:54 25.90475 -80.37160 1497 ft 185 kts 72°
2026-05-03 20:54 25.90817 -80.35783 1479 ft 183 kts 73°
2026-05-03 20:55 25.91023 -80.34383 1414 ft 185 kts 84°
2026-05-03 20:55 25.91081 -80.32948 943 ft 180 kts 86°
2026-05-03 20:55 25.91124 -80.31699 879 ft 145 kts 86°
2026-05-03 20:55 25.91171 -80.30592 554 ft 137 kts 85°
2026-05-03 20:56 25.91236 -80.29597 231 ft 124 kts 85°
2026-05-03 20:56 25.91276 -80.28612 24 ft 121 kts 85°
2026-05-03 20:56 25.91318 -80.27779 8 ft 96 kts 88°
2026-05-03 20:56 25.91345 -80.27184 10 ft 45 kts 86°
2026-05-03 20:57 25.91341 -80.27058 11 ft 11 kts 128°
2026-05-03 20:57 25.91286 -80.27042 11 ft 8 kts 177°
2026-05-03 20:57 25.91244 -80.27039 11 ft 0 kts 176°
2026-05-03 20:57 25.91243 -80.27039 11 ft 0 kts 176°
2026-05-03 20:58 25.91237 -80.27039 11 ft 2 kts 176°
2026-05-03 20:58 25.91202 -80.27025 11 ft 7 kts 156°
2026-05-03 20:58 25.91133 -80.27021 11 ft 12 kts 180°
2026-05-03 20:58 25.91059 -80.27012 11 ft 7 kts 128°
2026-05-03 20:59 25.91058 -80.26945 11 ft 7 kts 85°
2026-05-03 20:59 25.91082 -80.26922 11 ft 3 kts 27°
2026-05-03 20:59 25.91086 -80.26907 11 ft 2 kts 90°